| time (UTC) | temp F | wind direction | speed knots | gust knots | rain 1hr in | rain 24hr in | rain mn in | humidity % | barometer mb |
| 20260506203327 | 60 | 88 | 0.9 | 1.7 | 0.00 | 0.00 | 0.00 | 79 | 1011.3 |
| 20260506202838 | 60 | 88 | 0.0 | 1.7 | 0.00 | 0.00 | 0.00 | 78 | 1011.3 |
| 20260506202327 | 60 | 88 | 0.0 | 1.7 | 0.00 | 0.00 | 0.00 | 78 | 1011.3 |
| 20260506201817 | 60 | 88 | 0.9 | 1.7 | 0.00 | 0.00 | 0.00 | 78 | 1011.3 |
| 20260506201332 | 60 | 88 | 0.0 | 4.3 | 0.00 | 0.00 | 0.00 | 78 | 1011.4 |
| 20260506200827 | 60 | 88 | 0.9 | 4.3 | 0.00 | 0.00 | 0.00 | 78 | 1011.3 |
| 20260506200340 | 61 | 88 | 1.7 | 5.2 | 0.00 | 0.00 | 0.00 | 78 | 1011.2 |
| 20260506195830 | 61 | 88 | 1.7 | 5.2 | 0.00 | 0.00 | 0.00 | 77 | 1011.1 |
| 20260506195324 | 61 | 85 | 0.9 | 4.3 | 0.00 | 0.00 | 0.00 | 77 | 1011.0 |
| 20260506194837 | 61 | 84 | 1.7 | 4.3 | 0.00 | 0.00 | 0.00 | 77 | 1010.9 |
| 20260506194328 | 61 | 84 | 0.9 | 4.3 | 0.00 | 0.00 | 0.00 | 77 | 1010.9 |
| 20260506193818 | 61 | 84 | 0.9 | 4.3 | 0.00 | 0.00 | 0.00 | 77 | 1010.8 |
| 20260506193332 | 61 | 84 | 0.9 | 4.3 | 0.00 | 0.00 | 0.00 | 76 | 1010.9 |
| 20260506192827 | 61 | 74 | 0.9 | 3.5 | 0.00 | 0.00 | 0.00 | 76 | 1010.9 |
| 20260506192322 | 61 | 74 | 0.9 | 3.5 | 0.00 | 0.00 | 0.00 | 76 | 1010.9 |
| 20260506191833 | 61 | 72 | 0.9 | 2.6 | 0.00 | 0.00 | 0.00 | 76 | 1010.8 |
| 20260506191326 | 62 | 72 | 0.9 | 2.6 | 0.00 | 0.00 | 0.00 | 76 | 1010.7 |
| 20260506190837 | 62 | 72 | 0.9 | 2.6 | 0.00 | 0.00 | 0.00 | 75 | 1010.6 |
| 20260506190327 | 62 | 72 | 0.0 | 2.6 | 0.00 | 0.00 | 0.00 | 75 | 1010.8 |
| 20260506185838 | 62 | 72 | 0.0 | 2.6 | 0.00 | 0.00 | 0.00 | 75 | 1010.8 |
| 20260506185328 | 62 | 72 | 0.9 | 3.5 | 0.00 | 0.00 | 0.00 | 75 | 1010.8 |
| 20260506184826 | 62 | 72 | 0.0 | 2.6 | 0.00 | 0.00 | 0.00 | 75 | 1010.8 |
| 20260506184336 | 63 | 72 | 0.0 | 1.7 | 0.00 | 0.00 | 0.00 | 74 | 1010.8 |
| 20260506183829 | 63 | 72 | 0.9 | 1.7 | 0.00 | 0.00 | 0.00 | 74 | 1010.8 |
| 20260506183322 | 63 | 72 | 0.0 | 1.7 | 0.00 | 0.00 | 0.00 | 74 | 1010.8 |
| 20260506182833 | 63 | 72 | 0.0 | 0.0 | 0.00 | 0.00 | 0.00 | 73 | 1010.7 |
| 20260506182324 | 64 | 72 | 0.0 | 0.9 | 0.00 | 0.00 | 0.00 | 73 | 1010.6 |
| 20260506181833 | 64 | 72 | 0.0 | 0.9 | 0.00 | 0.00 | 0.00 | 73 | 1010.5 |
| 20260506181327 | 64 | 72 | 0.0 | 0.9 | 0.00 | 0.00 | 0.00 | 72 | 1010.5 |
| 20260506180827 | 64 | 72 | 0.0 | 1.7 | 0.00 | 0.00 | 0.00 | 72 | 1010.6 |
| 20260506180337 | 64 | 72 | 0.9 | 1.7 | 0.00 | 0.00 | 0.00 | 71 | 1010.6 |
| 20260506175828 | 64 | 72 | 0.0 | 3.5 | 0.00 | 0.00 | 0.00 | 70 | 1010.5 |
| 20260506175341 | 64 | 72 | 0.9 | 3.5 | 0.00 | 0.00 | 0.00 | 70 | 1010.5 |
| 20260506174832 | 65 | 72 | 0.0 | 0.9 | 0.00 | 0.00 | 0.00 | 69 | 1010.5 |
| 20260506174342 | 65 | 72 | 0.0 | 1.7 | 0.00 | 0.00 | 0.00 | 70 | 1010.5 |
| 20260506173833 | 65 | 72 | 0.0 | 2.6 | 0.00 | 0.00 | 0.00 | 69 | 1010.4 |
| 20260506173343 | 65 | 72 | 0.9 | 2.6 | 0.00 | 0.00 | 0.00 | 69 | 1010.5 |
| 20260506172838 | 65 | 72 | 0.0 | 2.6 | 0.00 | 0.00 | 0.00 | 68 | 1010.5 |
| 20260506172328 | 66 | 72 | 0.9 | 2.6 | 0.00 | 0.00 | 0.00 | 67 | 1010.4 |
| 20260506171839 | 66 | 72 | 0.0 | 2.6 | 0.00 | 0.00 | 0.00 | 68 | 1010.4 |
| 20260506171332 | 66 | 72 | 0.9 | 2.6 | 0.00 | 0.00 | 0.00 | 68 | 1010.4 |
| 20260506170826 | 66 | 72 | 0.0 | 4.3 | 0.00 | 0.00 | 0.00 | 68 | 1010.5 |
| 20260506170337 | 67 | 73 | 0.9 | 4.3 | 0.00 | 0.00 | 0.00 | 69 | 1010.4 |
| 20260506165827 | 67 | 68 | 0.9 | 4.3 | 0.00 | 0.00 | 0.00 | 69 | 1010.6 |
| 20260506165324 | 67 | 69 | 0.9 | 3.5 | 0.00 | 0.00 | 0.00 | 70 | 1010.5 |
| 20260506164838 | 67 | 69 | 0.0 | 4.3 | 0.00 | 0.00 | 0.00 | 70 | 1010.5 |
| 20260506164329 | 67 | 71 | 0.9 | 4.3 | 0.00 | 0.00 | 0.00 | 70 | 1010.5 |
| 20260506163840 | 67 | 69 | 0.0 | 4.3 | 0.00 | 0.00 | 0.00 | 69 | 1010.5 |
| 20260506163330 | 67 | 68 | 0.9 | 5.2 | 0.00 | 0.00 | 0.00 | 69 | 1010.5 |
| 20260506162823 | 67 | 87 | 0.9 | 4.3 | 0.00 | 0.00 | 0.00 | 68 | 1010.5 |
| 20260506162334 | 68 | 77 | 0.9 | 2.6 | 0.00 | 0.00 | 0.00 | 68 | 1010.6 |
| 20260506161827 | 68 | 77 | 0.9 | 2.6 | 0.00 | 0.00 | 0.00 | 67 | 1010.5 |
| 20260506161338 | 68 | 77 | 0.9 | 2.6 | 0.00 | 0.00 | 0.00 | 68 | 1010.5 |
| 20260506160833 | 68 | 77 | 0.0 | 2.6 | 0.00 | 0.00 | 0.00 | 67 | 1010.5 |
| 20260506160333 | 69 | 78 | 0.9 | 3.5 | 0.00 | 0.00 | 0.00 | 67 | 1010.5 |
| 20260506155827 | 69 | 78 | 0.9 | 3.5 | 0.00 | 0.00 | 0.00 | 66 | 1010.5 |
| 20260506155343 | 69 | 80 | 0.9 | 3.5 | 0.00 | 0.00 | 0.00 | 66 | 1010.5 |
| 20260506154833 | 69 | 81 | 0.0 | 3.5 | 0.00 | 0.00 | 0.00 | 66 | 1010.4 |
| 20260506154327 | 70 | 81 | 0.9 | 3.5 | 0.00 | 0.00 | 0.00 | 64 | 1010.5 |
| 20260506153839 | 70 | 81 | 0.9 | 3.5 | 0.00 | 0.00 | 0.00 | 64 | 1010.5 |
| 20260506153330 | 70 | 66 | 0.9 | 4.3 | 0.00 | 0.00 | 0.00 | 64 | 1010.5 |
| 20260506152830 | 70 | 66 | 1.7 | 4.3 | 0.00 | 0.00 | 0.00 | 65 | 1010.5 |
| 20260506152323 | 69 | 67 | 0.0 | 2.6 | 0.00 | 0.00 | 0.00 | 66 | 1010.5 |
| 20260506151840 | 69 | 67 | 0.9 | 2.6 | 0.00 | 0.00 | 0.00 | 66 | 1010.5 |
| 20260506151333 | 68 | 67 | 0.9 | 1.7 | 0.00 | 0.00 | 0.00 | 68 | 1010.5 |
| 20260506150826 | 67 | 67 | 0.0 | 1.7 | 0.00 | 0.00 | 0.00 | 68 | 1010.5 |
| 20260506150337 | 67 | 67 | 0.0 | 1.7 | 0.00 | 0.00 | 0.00 | 68 | 1010.6 |
| 20260506145827 | 66 | 67 | 0.0 | 0.9 | 0.00 | 0.00 | 0.00 | 69 | 1010.7 |
| 20260506145338 | 66 | 67 | 0.0 | 2.6 | 0.00 | 0.00 | 0.00 | 69 | 1010.7 |
| 20260506144833 | 66 | 66 | 0.9 | 2.6 | 0.00 | 0.00 | 0.00 | 69 | 1010.7 |
| 20260506144326 | 66 | 66 | 0.9 | 3.5 | 0.00 | 0.00 | 0.00 | 69 | 1010.7 |
| 20260506143837 | 66 | 66 | 0.9 | 3.5 | 0.00 | 0.00 | 0.00 | 69 | 1010.7 |
| 20260506143328 | 66 | 67 | 0.9 | 3.5 | 0.00 | 0.00 | 0.00 | 69 | 1010.8 |
| 20260506142824 | 66 | 66 | 0.9 | 6.1 | 0.00 | 0.00 | 0.00 | 69 | 1010.9 |
| 20260506142334 | 66 | 67 | 1.7 | 6.1 | 0.00 | 0.00 | 0.00 | 69 | 1011.0 |
| 20260506141845 | 66 | 67 | 1.7 | 2.6 | 0.00 | 0.00 | 0.00 | 70 | 1011.0 |
| 20260506141335 | 66 | 67 | 0.0 | 3.5 | 0.00 | 0.00 | 0.00 | 70 | 1011.2 |
| 20260506140833 | 66 | 67 | 0.9 | 3.5 | 0.00 | 0.00 | 0.00 | 70 | 1011.2 |
| 20260506140343 | 66 | 67 | 0.0 | 3.5 | 0.00 | 0.00 | 0.00 | 70 | 1011.1 |
| 20260506135833 | 66 | 67 | 0.9 | 4.3 | 0.00 | 0.00 | 0.00 | 70 | 1011.2 |
| 20260506135327 | 66 | 67 | 0.9 | 6.1 | 0.00 | 0.00 | 0.00 | 71 | 1011.3 |
| 20260506134840 | 66 | 67 | 0.9 | 4.3 | 0.00 | 0.00 | 0.00 | 71 | 1011.3 |
| 20260506134331 | 66 | 77 | 0.9 | 3.5 | 0.00 | 0.00 | 0.00 | 71 | 1011.2 |
| 20260506133841 | 66 | 74 | 0.9 | 3.5 | 0.00 | 0.00 | 0.00 | 71 | 1011.2 |
| 20260506133332 | 66 | 44 | 0.9 | 3.5 | 0.00 | 0.00 | 0.00 | 72 | 1011.3 |
| 20260506132829 | 66 | 44 | 1.7 | 3.5 | 0.00 | 0.00 | 0.00 | 72 | 1011.4 |
| 20260506132326 | 66 | 40 | 0.0 | 5.2 | 0.00 | 0.00 | 0.00 | 72 | 1011.4 |
| 20260506131837 | 66 | 41 | 1.7 | 5.2 | 0.00 | 0.00 | 0.00 | 70 | 1011.5 |
| 20260506131327 | 67 | 64 | 1.7 | 6.1 | 0.00 | 0.00 | 0.00 | 71 | 1011.4 |
| 20260506130838 | 67 | 54 | 0.9 | 6.1 | 0.00 | 0.00 | 0.00 | 71 | 1011.4 |
| 20260506130328 | 67 | 62 | 2.6 | 6.1 | 0.00 | 0.00 | 0.00 | 71 | 1011.4 |
| 20260506125839 | 67 | 59 | 0.9 | 6.1 | 0.00 | 0.35 | 0.00 | 70 | 1011.4 |
| 20260506124827 | 67 | 360 | 2.6 | 8.7 | 0.00 | 0.35 | 0.00 | 71 | 1011.5 |
| 20260506124340 | 67 | 16 | 1.7 | 6.1 | 0.00 | 0.35 | 0.00 | 72 | 1011.6 |
| 20260506123831 | 67 | 51 | 1.7 | 6.1 | 0.00 | 0.35 | 0.00 | 71 | 1011.5 |
| 20260506123325 | 67 | 59 | 2.6 | 6.1 | 0.00 | 0.35 | 0.00 | 71 | 1011.5 |
| 20260506122838 | 67 | 58 | 1.7 | 6.1 | 0.00 | 0.35 | 0.00 | 70 | 1011.5 |
| 20260506122329 | 68 | 9 | 1.7 | 6.1 | 0.00 | 0.35 | 0.00 | 70 | 1011.5 |
| 20260506121819 | 68 | 48 | 1.7 | 5.2 | 0.00 | 0.35 | 0.00 | 70 | 1011.5 |
| 20260506121333 | 68 | 65 | 1.7 | 6.1 | 0.00 | 0.35 | 0.00 | 70 | 1011.5 |
| 20260506120831 | 68 | 23 | 2.6 | 6.1 | 0.00 | 0.35 | 0.00 | 69 | 1011.6 |
| 20260506120324 | 68 | 34 | 2.6 | 6.1 | 0.00 | 0.35 | 0.00 | 68 | 1011.6 |
| 20260506115834 | 68 | 34 | 1.7 | 5.2 | 0.00 | 0.35 | 0.00 | 69 | 1011.6 |
| 20260506115325 | 68 | 19 | 1.7 | 7.0 | 0.00 | 0.35 | 0.00 | 68 | 1011.7 |
| 20260506114819 | 69 | 32 | 2.6 | 7.0 | 0.00 | 0.35 | 0.00 | 67 | 1011.8 |
| 20260506114332 | 69 | 42 | 1.7 | 4.3 | 0.00 | 0.35 | 0.00 | 67 | 1011.8 |
| 20260506113826 | 70 | 55 | 0.9 | 8.7 | 0.00 | 0.35 | 0.00 | 67 | 1011.8 |
| 20260506113336 | 70 | 74 | 2.6 | 8.7 | 0.00 | 0.35 | 0.00 | 66 | 1011.8 |
| 20260506112834 | 70 | 36 | 1.7 | 5.2 | 0.00 | 0.35 | 0.00 | 68 | 1011.8 |
| 20260506112324 | 69 | 17 | 1.7 | 6.1 | 0.00 | 0.35 | 0.00 | 68 | 1011.9 |
| 20260506111835 | 69 | 44 | 1.7 | 6.1 | 0.00 | 0.35 | 0.00 | 69 | 1012.0 |
| 20260506111328 | 69 | 69 | 1.7 | 5.2 | 0.00 | 0.35 | 0.00 | 69 | 1012.1 |
| 20260506110839 | 68 | 44 | 1.7 | 5.2 | 0.00 | 0.35 | 0.00 | 70 | 1012.1 |
| 20260506110330 | 68 | 5 | 1.7 | 5.2 | 0.00 | 0.35 | 0.00 | 69 | 1012.1 |
| 20260506105826 | 67 | 58 | 0.9 | 6.1 | 0.00 | 0.35 | 0.00 | 71 | 1012.1 |
| 20260506105340 | 67 | 59 | 2.6 | 6.1 | 0.00 | 0.35 | 0.00 | 69 | 1012.2 |
| 20260506104835 | 67 | 39 | 1.7 | 4.3 | 0.00 | 0.35 | 0.00 | 71 | 1012.1 |
| 20260506104325 | 67 | 94 | 1.7 | 5.2 | 0.00 | 0.35 | 0.00 | 71 | 1012.1 |
| 20260506103835 | 67 | 18 | 2.6 | 7.8 | 0.00 | 0.35 | 0.00 | 71 | 1012.1 |
| 20260506103329 | 67 | 24 | 2.6 | 7.8 | 0.00 | 0.35 | 0.00 | 71 | 1012.1 |
| 20260506102822 | 67 | 15 | 1.7 | 7.8 | 0.00 | 0.35 | 0.00 | 71 | 1012.1 |
| 20260506102333 | 68 | 13 | 3.5 | 7.8 | 0.00 | 0.35 | 0.00 | 71 | 1012.1 |
| 20260506101824 | 68 | 72 | 3.5 | 8.7 | 0.00 | 0.35 | 0.00 | 71 | 1012.1 |
| 20260506101337 | 68 | 5 | 2.6 | 6.1 | 0.00 | 0.35 | 0.00 | 71 | 1012.1 |
| 20260506100831 | 67 | 60 | 2.6 | 6.1 | 0.00 | 0.35 | 0.00 | 73 | 1012.1 |
| 20260506100336 | 67 | 53 | 1.7 | 6.1 | 0.00 | 0.35 | 0.00 | 72 | 1012.1 |
| 20260506095829 | 67 | 57 | 0.9 | 6.1 | 0.00 | 0.35 | 0.00 | 73 | 1012.1 |
| 20260506095319 | 67 | 21 | 1.7 | 8.7 | 0.00 | 0.35 | 0.00 | 71 | 1012.1 |
| 20260506094833 | 67 | 5 | 3.5 | 8.7 | 0.00 | 0.35 | 0.00 | 72 | 1012.1 |
| 20260506093837 | 67 | 39 | 2.6 | 8.7 | 0.00 | 0.35 | 0.00 | 70 | 1012.0 |
| 20260506093328 | 68 | 5 | 3.5 | 8.7 | 0.00 | 0.35 | 0.00 | 70 | 1012.0 |
| 20260506092825 | 68 | 11 | 4.3 | 8.7 | 0.00 | 0.35 | 0.00 | 69 | 1011.9 |
| 20260506092319 | 68 | 17 | 1.7 | 7.0 | 0.00 | 0.35 | 0.00 | 71 | 1011.8 |
| 20260506091832 | 68 | 38 | 2.6 | 7.0 | 0.00 | 0.35 | 0.00 | 71 | 1011.7 |
| 20260506091323 | 67 | 9 | 1.7 | 6.1 | 0.00 | 0.35 | 0.00 | 72 | 1011.7 |
| 20260506090833 | 67 | 360 | 3.5 | 6.1 | 0.00 | 0.35 | 0.00 | 72 | 1011.7 |
| 20260506090324 | 66 | 25 | 1.7 | 8.7 | 0.00 | 0.35 | 0.00 | 74 | 1011.6 |
| 20260506085833 | 66 | 61 | 2.6 | 8.7 | 0.00 | 0.35 | 0.00 | 74 | 1011.7 |
| 20260506085324 | 65 | 5 | 1.7 | 7.0 | 0.00 | 0.35 | 0.00 | 74 | 1011.7 |
| 20260506084822 | 65 | 360 | 2.6 | 7.0 | 0.00 | 0.35 | 0.00 | 74 | 1011.6 |
| 20260506084332 | 65 | 17 | 2.6 | 7.0 | 0.00 | 0.35 | 0.00 | 74 | 1011.6 |
| 20260506083823 | 65 | 14 | 2.6 | 8.7 | 0.00 | 0.35 | 0.00 | 74 | 1011.6 |
| 20260506083333 | 65 | 11 | 3.5 | 8.7 | 0.00 | 0.35 | 0.00 | 75 | 1011.6 |
| 20260506082827 | 65 | 13 | 3.5 | 8.7 | 0.00 | 0.35 | 0.00 | 75 | 1011.6 |
| 20260506082317 | 65 | 9 | 1.7 | 4.3 | 0.00 | 0.35 | 0.00 | 76 | 1011.7 |
| 20260506081832 | 65 | 11 | 2.6 | 4.3 | 0.00 | 0.35 | 0.00 | 76 | 1011.7 |
| 20260506081325 | 65 | 11 | 1.7 | 6.1 | 0.00 | 0.35 | 0.00 | 76 | 1011.7 |
| 20260506080820 | 65 | 10 | 1.7 | 6.1 | 0.00 | 0.35 | 0.00 | 76 | 1011.6 |
| 20260506080330 | 65 | 11 | 0.9 | 5.2 | 0.00 | 0.35 | 0.00 | 76 | 1011.7 |
| 20260506073317 | 64 | 349 | 0.9 | 4.3 | 0.00 | 0.35 | 0.00 | 77 | 1011.6 |
| 20260506072830 | 64 | 344 | 1.7 | 6.1 | 0.00 | 0.35 | 0.00 | 77 | 1011.6 |
| 20260506072328 | 64 | 338 | 0.9 | 5.2 | 0.00 | 0.35 | 0.00 | 78 | 1011.6 |
| 20260506071820 | 63 | 334 | 0.9 | 4.3 | 0.00 | 0.35 | 0.00 | 78 | 1011.6 |
| 20260506071330 | 63 | 334 | 0.9 | 4.3 | 0.00 | 0.35 | 0.00 | 79 | 1011.6 |
| 20260506070827 | 63 | 334 | 0.9 | 4.3 | 0.00 | 0.35 | 0.00 | 79 | 1011.6 |
| 20260506070320 | 63 | 334 | 0.9 | 2.6 | 0.00 | 0.35 | 0.00 | 79 | 1011.6 |
| 20260506061819 | 62 | 334 | 0.0 | 0.9 | 0.00 | 0.35 | 0.00 | 79 | 1011.5 |
| 20260506061329 | 62 | 334 | 0.0 | 0.0 | 0.00 | 0.35 | 0.00 | 79 | 1011.6 |
| 20260506060823 | 62 | 334 | 0.0 | 0.0 | 0.00 | 0.35 | 0.00 | 79 | 1011.6 |
| 20260506060317 | 61 | 334 | 0.0 | 0.0 | 0.00 | 0.35 | 0.00 | 79 | 1011.5 |
| 20260506051334 | 61 | 334 | 0.0 | 0.0 | 0.00 | 0.35 | 0.00 | 82 | 1011.2 |
| 20260506050828 | 61 | 334 | 0.0 | 0.0 | 0.00 | 0.35 | 0.00 | 82 | 1011.1 |
| 20260506050321 | 61 | 334 | 0.0 | 0.9 | 0.00 | 0.35 | 0.00 | 82 | 1011.0 |
| 20260506044820 | 61 | 334 | 0.0 | 3.5 | 0.00 | 0.35 | 0.00 | 82 | 1011.0 |
| 20260506044331 | 61 | 334 | 0.0 | 3.5 | 0.00 | 0.35 | 0.00 | 82 | 1010.9 |
| 20260506043821 | 61 | 334 | 0.9 | 3.5 | 0.00 | 0.35 | 0.00 | 82 | 1010.8 |
| 20260506043334 | 61 | 334 | 0.9 | 4.3 | 0.00 | 0.35 | 0.00 | 82 | 1010.8 |
| 20260506042824 | 61 | 334 | 0.9 | 4.3 | 0.00 | 0.35 | 0.00 | 83 | 1010.7 |
| 20260506042338 | 61 | 334 | 0.9 | 3.5 | 0.00 | 0.35 | 0.00 | 83 | 1010.8 |
| 20260506041829 | 61 | 333 | 1.7 | 4.3 | 0.00 | 0.35 | 0.00 | 83 | 1010.7 |
| 20260506041319 | 61 | 332 | 0.9 | 4.3 | 0.00 | 0.35 | 0.00 | 83 | 1010.8 |
| 20260506040817 | 61 | 332 | 1.7 | 4.3 | 0.00 | 0.35 | 0.00 | 83 | 1010.8 |
| 20260506040320 | 61 | 333 | 0.0 | 0.0 | 0.00 | 0.35 | 0.00 | 83 | 1010.6 |
| 20260506035834 | 60 | 333 | 0.0 | 0.9 | 0.00 | 0.35 | 0.00 | 83 | 1010.6 |
| 20260506035324 | 60 | 333 | 0.0 | 0.9 | 0.00 | 0.35 | 0.00 | 83 | 1010.6 |
| 20260506034815 | 60 | 333 | 0.0 | 0.0 | 0.00 | 0.35 | 0.00 | 82 | 1010.7 |
| 20260506034328 | 61 | 333 | 0.0 | 0.0 | 0.00 | 0.35 | 0.00 | 82 | 1010.7 |
| 20260506033822 | 61 | 333 | 0.0 | 0.0 | 0.00 | 0.35 | 0.00 | 82 | 1010.7 |
| 20260506033333 | 61 | 333 | 0.0 | 1.7 | 0.00 | 0.35 | 0.00 | 82 | 1010.7 |
| 20260506032826 | 61 | 333 | 0.0 | 1.7 | 0.00 | 0.35 | 0.00 | 82 | 1010.7 |
| 20260506032327 | 61 | 333 | 0.0 | 2.6 | 0.00 | 0.35 | 0.00 | 81 | 1010.6 |
| 20260506031820 | 61 | 333 | 0.0 | 1.7 | 0.00 | 0.35 | 0.00 | 81 | 1010.7 |
| 20260506031331 | 62 | 333 | 0.0 | 2.6 | 0.00 | 0.35 | 0.00 | 81 | 1010.6 |
| 20260506030820 | 62 | 333 | 0.0 | 2.6 | 0.00 | 0.35 | 0.00 | 81 | 1010.6 |
| 20260506030334 | 62 | 333 | 0.9 | 2.6 | 0.00 | 0.35 | 0.00 | 81 | 1010.5 |
| 20260506025822 | 62 | 333 | 0.0 | 2.6 | 0.00 | 0.35 | 0.00 | 81 | 1010.5 |
| 20260506025333 | 62 | 333 | 0.9 | 2.6 | 0.00 | 0.35 | 0.00 | 81 | 1010.5 |
| 20260506024825 | 62 | 333 | 0.0 | 3.5 | 0.00 | 0.35 | 0.00 | 81 | 1010.5 |
| 20260506024323 | 62 | 333 | 0.9 | 3.5 | 0.00 | 0.35 | 0.00 | 81 | 1010.5 |
| 20260506023837 | 62 | 333 | 0.0 | 2.6 | 0.00 | 0.35 | 0.00 | 81 | 1010.6 |
| 20260506023330 | 62 | 333 | 0.9 | 4.3 | 0.00 | 0.35 | 0.00 | 81 | 1010.6 |
| 20260506022839 | 62 | 355 | 0.0 | 3.5 | 0.00 | 0.35 | 0.00 | 81 | 1010.5 |
| 20260506022328 | 62 | 355 | 0.9 | 3.5 | 0.00 | 0.35 | 0.00 | 81 | 1010.6 |
| 20260506021819 | 62 | 355 | 1.7 | 5.2 | 0.00 | 0.35 | 0.00 | 81 | 1010.6 |
| 20260506021332 | 62 | 355 | 1.7 | 6.1 | 0.00 | 0.35 | 0.00 | 82 | 1010.6 |
| 20260506020846 | 62 | 320 | 1.7 | 6.1 | 0.00 | 0.35 | 0.00 | 82 | 1010.6 |
| 20260506020333 | 62 | 321 | 1.7 | 6.1 | 0.00 | 0.35 | 0.00 | 82 | 1010.7 |
| 20260506015824 | 62 | 46 | 0.9 | 5.2 | 0.00 | 0.35 | 0.00 | 82 | 1010.6 |
| 20260506015334 | 62 | 342 | 2.6 | 7.8 | 0.00 | 0.35 | 0.00 | 82 | 1010.6 |
| 20260506014824 | 63 | 350 | 2.6 | 7.8 | 0.00 | 0.35 | 0.00 | 82 | 1010.6 |
| 20260506014318 | 63 | 31 | 0.9 | 4.3 | 0.00 | 0.35 | 0.00 | 82 | 1010.6 |
| 20260506013832 | 63 | 32 | 0.0 | 7.0 | 0.00 | 0.35 | 0.00 | 82 | 1010.6 |
| 20260506013322 | 63 | 324 | 1.7 | 6.1 | 0.00 | 0.35 | 0.00 | 82 | 1010.7 |
| 20260506012832 | 63 | 296 | 0.9 | 2.6 | 0.00 | 0.35 | 0.00 | 82 | 1010.7 |
| 20260506012327 | 63 | 296 | 0.0 | 5.2 | 0.00 | 0.35 | 0.00 | 82 | 1010.7 |
| 20260506011837 | 63 | 296 | 0.9 | 5.2 | 0.00 | 0.35 | 0.00 | 82 | 1010.7 |
| 20260506011328 | 63 | 306 | 0.0 | 4.3 | 0.00 | 0.35 | 0.00 | 82 | 1010.7 |
| 20260506010838 | 63 | 311 | 0.0 | 3.5 | 0.00 | 0.35 | 0.00 | 82 | 1010.7 |
| 20260506010329 | 63 | 312 | 0.9 | 5.2 | 0.00 | 0.35 | 0.00 | 82 | 1010.7 |
| 20260506005822 | 63 | 288 | 0.9 | 3.5 | 0.00 | 0.35 | 0.00 | 82 | 1010.7 |
| 20260506005332 | 63 | 288 | 0.9 | 4.3 | 0.00 | 0.35 | 0.00 | 82 | 1010.8 |
| 20260506004826 | 64 | 288 | 0.9 | 5.2 | 0.00 | 0.35 | 0.00 | 82 | 1010.7 |
| 20260506004320 | 64 | 299 | 1.7 | 5.2 | 0.00 | 0.35 | 0.00 | 82 | 1010.8 |
| 20260506003831 | 64 | 268 | 0.0 | 5.2 | 0.00 | 0.35 | 0.00 | 82 | 1010.7 |
| 20260506003321 | 64 | 272 | 1.7 | 5.2 | 0.00 | 0.35 | 0.00 | 82 | 1010.7 |
| 20260506002832 | 64 | 264 | 1.7 | 6.1 | 0.00 | 0.35 | 0.00 | 82 | 1010.7 |
| 20260506002324 | 64 | 299 | 0.9 | 5.2 | 0.00 | 0.35 | 0.00 | 82 | 1010.8 |
| 20260506001818 | 64 | 269 | 0.9 | 4.3 | 0.00 | 0.35 | 0.00 | 82 | 1010.9 |
| 20260506001332 | 64 | 342 | 0.9 | 5.2 | 0.00 | 0.35 | 0.00 | 82 | 1010.9 |
| 20260506000825 | 64 | 313 | 1.7 | 5.2 | 0.00 | 0.35 | 0.00 | 81 | 1010.9 |
| 20260506000323 | 64 | 279 | 0.9 | 5.2 | 0.00 | 0.35 | 0.00 | 81 | 1011.0 |
| 20260505235833 | 63 | 246 | 1.7 | 7.8 | 0.00 | 0.35 | 0.00 | 80 | 1011.0 |
| 20260505235324 | 63 | 242 | 1.7 | 7.8 | 0.00 | 0.35 | 0.00 | 80 | 1011.0 |
| 20260505234834 | 63 | 242 | 0.9 | 6.1 | 0.00 | 0.35 | 0.00 | 80 | 1011.0 |
| 20260505234328 | 63 | 234 | 2.6 | 7.0 | 0.00 | 0.35 | 0.00 | 80 | 1010.9 |
| 20260505233838 | 63 | 234 | 1.7 | 7.0 | 0.00 | 0.35 | 0.00 | 79 | 1010.9 |
| 20260505233329 | 63 | 257 | 3.5 | 7.0 | 0.00 | 0.35 | 0.00 | 79 | 1010.8 |
| 20260505232826 | 63 | 252 | 3.5 | 6.1 | 0.00 | 0.35 | 0.00 | 79 | 1010.7 |
| 20260505232320 | 63 | 251 | 1.7 | 6.1 | 0.00 | 0.35 | 0.00 | 79 | 1010.7 |
| 20260505231833 | 63 | 252 | 1.7 | 7.0 | 0.00 | 0.35 | 0.00 | 79 | 1010.7 |
| 20260505231326 | 63 | 252 | 0.9 | 7.8 | 0.00 | 0.35 | 0.00 | 79 | 1010.7 |
| 20260505230820 | 63 | 249 | 2.6 | 7.8 | 0.00 | 0.35 | 0.00 | 79 | 1010.6 |
| 20260505230334 | 62 | 241 | 4.3 | 7.8 | 0.00 | 0.35 | 0.00 | 78 | 1010.6 |
| 20260505225827 | 60 | 257 | 0.9 | 6.1 | 0.00 | 0.35 | 0.00 | 74 | 1010.5 |
| 20260505225338 | 60 | 190 | 1.7 | 4.3 | 0.00 | 0.35 | 0.00 | 74 | 1010.5 |
| 20260505224828 | 59 | 98 | 0.0 | 1.7 | 0.00 | 0.35 | 0.00 | 73 | 1010.5 |
| 20260505224323 | 60 | 98 | 0.9 | 1.7 | 0.00 | 0.35 | 0.00 | 73 | 1010.3 |
| 20260505223833 | 60 | 98 | 0.0 | 2.6 | 0.00 | 0.35 | 0.00 | 73 | 1010.3 |
| 20260505223324 | 60 | 98 | 0.9 | 2.6 | 0.00 | 0.35 | 0.00 | 74 | 1010.4 |
| 20260505222820 | 60 | 98 | 0.0 | 2.6 | 0.00 | 0.35 | 0.00 | 74 | 1010.4 |
| 20260505222331 | 60 | 98 | 0.0 | 2.6 | 0.00 | 0.35 | 0.00 | 72 | 1010.5 |
| 20260505221841 | 60 | 98 | 0.0 | 0.9 | 0.00 | 0.35 | 0.00 | 71 | 1010.2 |
| 20260505221332 | 60 | 98 | 0.0 | 0.9 | 0.00 | 0.35 | 0.00 | 71 | 1010.0 |
| 20260505220843 | 61 | 98 | 0.0 | 0.9 | 0.00 | 0.35 | 0.00 | 70 | 1009.9 |
| 20260505220345 | 61 | 98 | 0.0 | 0.9 | 0.00 | 0.35 | 0.00 | 70 | 1009.9 |
| 20260505215331 | 62 | 98 | 0.0 | 2.6 | 0.00 | 0.35 | 0.07 | 70 | 1010.0 |
| 20260505214827 | 62 | 98 | 0.0 | 4.3 | 0.00 | 0.35 | 0.07 | 68 | 1010.1 |
| 20260505214340 | 62 | 98 | 0.9 | 4.3 | 0.00 | 0.35 | 0.07 | 68 | 1010.1 |
| 20260505213829 | 62 | 98 | 0.0 | 1.7 | 0.00 | 0.35 | 0.07 | 70 | 1010.1 |
| 20260505213340 | 62 | 98 | 0.0 | 2.6 | 0.00 | 0.35 | 0.07 | 70 | 1010.1 |
| 20260505212834 | 62 | 98 | 0.9 | 2.6 | 0.00 | 0.35 | 0.07 | 70 | 1010.2 |
| 20260505212324 | 62 | 98 | 0.0 | 4.3 | 0.00 | 0.35 | 0.07 | 70 | 1010.1 |
| 20260505211841 | 62 | 98 | 0.0 | 4.3 | 0.00 | 0.35 | 0.07 | 70 | 1010.1 |
| 20260505211334 | 62 | 98 | 0.9 | 1.7 | 0.00 | 0.35 | 0.07 | 70 | 1010.1 |
| 20260505210825 | 62 | 98 | 0.9 | 2.6 | 0.00 | 0.35 | 0.07 | 69 | 1010.2 |
| 20260505210335 | 62 | 98 | 0.9 | 2.6 | 0.00 | 0.35 | 0.07 | 69 | 1010.2 |
| 20260505205831 | 63 | 98 | 0.0 | 2.6 | 0.00 | 0.35 | 0.07 | 68 | 1010.2 |
| 20260505205341 | 63 | 98 | 0.0 | 1.7 | 0.00 | 0.35 | 0.07 | 68 | 1010.1 |
| 20260505204832 | 63 | 98 | 0.0 | 1.7 | 0.00 | 0.35 | 0.07 | 67 | 1010.2 |
| 20260505204322 | 63 | 98 | 0.0 | 2.6 | 0.00 | 0.35 | 0.07 | 68 | 1010.1 |
| 20260505203837 | 63 | 98 | 0.0 | 4.3 | 0.00 | 0.35 | 0.07 | 68 | 1010.1 |